Orbital Elements at Epoch 2459000.5 (2020-May-31.0) TDB
Reference: JPL 17 (heliocentric ecliptic J2000)
Element | Value | Uncertainty (1-sigma) | Units |
e | .1138252132275934 | 5.8233e-08 | |
a | 2.749132161531017 | 1.6451e-08 | au |
q | 2.436211607053914 | 1.587e-07 | au |
i | 12.48130536465344 | 7.1328e-06 | deg |
node | 16.82429130848885 | 1.7312e-05 | deg |
peri | 198.9424486491812 | 2.9808e-05 | deg |
M | 357.6289196896927 | 2.1499e-05 | deg |
tp | 2459011.465681260344 (2020-Jun-10.96568126) | 9.9403e-05 | TDB |
period | 1664.914189773858 4.56 | 1.4944e-05 4.091e-08 | d yr |
n | .2162273600712708 | 1.9408e-09 | deg/d |
Q | 3.06205271600812 | 1.8323e-08 | au |
|
| | Orbit Determination Parameters
Additional Information
|